sat.trackr.live / text

‹ back to catalog

STARLINK-34690

NORAD 64863 · 2025-152X

PAYLOAD ACTIVE UNKNOWN

§ Identity

Operator
Country
US
Launch date
2025-07-19
Launch site
AFWTR
Launch vehicle
Mass (kg)
RCS (m²)

Purposes: comms

External: N2YO · Heavens-Above · Gunter

§ Orbital elements

Epoch: 2026-05-25T03:12:18.764064Z

Period
95.64 min
Inclination
97.4495°
Eccentricity
0.0002310
Mean motion
15.05655102 rev/d
Perigee alt
547.9 km
Apogee alt
551.1 km
Semi-major
6,927.6 km
B*
1.8982e-4
RAAN
0.5402°
Arg perigee
78.6076°
Mean anomaly
281.5410°
Rev number
4,692

§ Raw data

STARLINK-346901 64863U 25152X   26145.13355051  .00002682  00000+0  18982-3 0  99912 64863  97.4495   0.5402 0002310  78.6076 281.5410 15.05655102 46920

JSON: /api/v1/satellites/64863 · /tle

For live sub-satellite position, see the globe view (requires WebGL).

§ Visibility from observer

Set your observer location to see the next 7 days of passes ≥ 10°. The values pass through the URL so the page stays shareable.

No JS? Fill the form by hand. The geolocation button needs JavaScript.